Regional Weather Roundup
Issued by NWS Northern Indiana

Home | Current Version | Previous Version | Text Only | Print | Product List | Glossary Off
Versions: 1 2 3 4 5 6 7 8 9 10 11 12 13 14 15 16 17 18 19 20 21 22 23 24 25 26 27 28 29 30 31 32 33 34 35 36 37 38 39 40 41 42 43 44 45 46 47 48 49 50

000
ASUS43 KIWX 181500
RWRIWX

KIWX WEATHER ROUNDUP
NATIONAL WEATHER SERVICE NORTHERN INDIANA
1000 AM EST SUN FEB 18 2018

NOTE: "FAIR" INDICATES FEW OR NO CLOUDS BELOW 12,000 FEET WITH NO
SIGNIFICANT WEATHER AND/OR OBSTRUCTIONS TO VISIBILITY.

* THESE STATIONS ARE NOT UNDER NWS QUALITY CONTROL. THEY ALSO MAY NOT
  REPORT WEATHER SUCH AS PRECIPITATION OR FOG.

INZ001>027-181600-
NORTHERN INDIANA

CITY           SKY/WX    TMP DP  RH WIND       PRES   REMARKS
GARY*          MOSUNNY   27  27 100 S8        30.27F WCI  18
KNOX*          CLOUDY    27  25  93 SE15      30.29F WCI  15
SOUTH BEND     PTSUNNY   25  22  88 S14       30.27F WCI  13
GOSHEN         CLOUDY    28  22  78 SE14      30.29F HAZE    WCI  17
MONTICELLO*    CLOUDY    28  25  89 SE8G16    30.31S WCI  19
WARSAW*        CLOUDY    28  25  86 SE9       30.30F WCI  20
AUBURN*        CLOUDY    30  27  86 S3        30.34F
FORT WAYNE     CLOUDY    30  25  81 S8        30.34S WCI  22
PERU/GRISSOM   CLOUDY    29  29 100 S14       30.32F WCI  18

$$
INZ028>050-181600-
CENTRAL INDIANA

CITY           SKY/WX    TMP DP  RH WIND       PRES   REMARKS
LAFAYETTE      CLOUDY    29  27  92 S8        30.32S WCI  21
KOKOMO*        CLOUDY    29  26  89 S14       30.34F WCI  18
MUNCIE*        CLOUDY    30  25  81 S7        30.34S WCI  23
INDIANAPOLIS   CLOUDY    31  27  85 SE15      30.34F WCI  20

$$
MIZ043>046-050>051-056>058-064>065-071>073-077>080-181600-
SOUTHWEST LOWER MICHIGAN

CITY           SKY/WX    TMP DP  RH WIND       PRES   REMARKS
BATTLE CREEK   FAIR      28  24  85 S8        30.28F WCI  20
BENTON HARBOR  FAIR      28  23  81 SE9       30.26F HAZE    WCI  19
COLDWATER*     FAIR      30  24  78 S7        30.29F WCI  23
HILLSDALE*     FAIR      32  23  69 S6        30.29S WCI  26
HOLLAND        FAIR      31  25  78 S9        30.24F WCI  23
GRAND RAPIDS   PTSUNNY   32  25  75 S15       30.25F WCI  22
KALAMAZOO      FAIR      27  23  85 S8        30.28F WCI  19
STURGIS*       CLOUDY    29  24  79 S10       30.28F WCI  20
THREE RIVERS*  FAIR      28  26  96 S9        30.30F WCI  19

$$
OHZ001>008-015>018-024>025-181600-
NORTHWEST OHIO

CITY           SKY/WX    TMP DP  RH WIND       PRES   REMARKS
DEFIANCE       CLOUDY    30  24  78 S6        30.36R WCI  24
FINDLAY        CLOUDY    32  24  72 S8        30.35R WCI  25
TOLEDO EXPRESS CLOUDY    31  25  78 SW6       30.35R WCI  25
TOLEDO METCALF CLOUDY    32  26  78 SW8       30.37R WCI  25
LIMA           CLOUDY    30  25  81 S9        30.35R WCI  22

$$
AND FOR LAKE MICHIGAN COASTAL AND OPEN LAKE BUOY OBSERVATIONS

STATION/POSITION TEMP    WIND        PRES    VSBY  WAVE
                 AIR SEA DIR/SP/G                  HT/PER
                 (F)     (DEG/KT/KT) (MB)    (MI)  (FT/S)
CALUMET HARBOR    25     170/  8/ 10 1024.1
MICHIGAN CITY     24     150/ 13/ 16   N/A
BURNS HARBOR      26     170/  9/ 17 1025.1F
SAINT JOSEPH      25     170/  3/  6 1026.1

$$
&&




USA.gov is the U.S. government's official web portal to all federal, state and local government web resources and services.